User: anonymous   Login
Location: Pleiades Observatory
(40.1297°N, 91.5238°W)
Time: 08:31:39
(UTC-05:00)
Language:

Cosmos 1842 Rocket - Orbit

View from above orbital plane
View from above orbital plane
View from above satellite
View from above satellite

Ground track
Ground track

The orbit data is extracted from the following two-line orbital elements,

1 17912U 87038B   16208.52124518  .00000088  00000-0  78793-5 0  9996
2 17912  82.5028 355.9054 0019279 219.7401 140.2403 14.82877647579469
Epoch (UTC): 26 July 2016 12:30:35
Eccentricity: 0.0019279
inclination: 82.5028°
perigee height: 607 km
apogee height: 634 km
right ascension of ascending node: 355.9054°
argument of perigee: 219.7401°
revolutions per day: 14.82877647
mean anomaly at epoch: 140.2403°
orbit number at epoch: 57946

The dashed part of the orbit path shows where the satellite is in the earth's shadow,  

DLR